Hettinger, ND

2:12 PM MDT on September 19, 2017 (GMT -0600)
Hettinger Municipal

Weather History for KHEI - January, 2014

Change the Weather History Date:

Monday, January 13, 2014

  Actual Average Record
Temperature  
Mean Temperature 29 °F -  
Max Temperature 40 °F 28 °F 41 °F (2016)
Min Temperature 17 °F 5 °F -31 °F (2005)
Degree Days  
Heating Degree Days 36 49  
Month to date heating degree days 650 637  
Since 1 July heating degree days 4372 4216  
Moisture  
Dew Point 25 °F    
Average Humidity 77    
Maximum Humidity 89    
Minimum Humidity 64    
Precipitation  
Precipitation T in 0.00 in 0.06 in (2009)
Month to date precipitation 0.07 0.13  
Year to date precipitation 0.07 0.13  
Sea Level Pressure  
Sea Level Pressure 29.70 in    
Wind  
Wind Speed 20 mph (West)    
Max Wind Speed 45 mph    
Max Gust Speed 54 mph    
Visibility 10 miles    
Events      
T = Trace of Precipitation, MM = Missing Value Source: NWS Daily Summary

Daily Weather History Graph

Daily Weather History Graph

Search for Another Location

Airport or City:

Trip Planner

Search our weather history database for the weather conditions in past years. The results will help you decide how hot, cold, wet, or windy it might be!

Date:

Astronomy

Jan. 13, 2014 Rise Set
Actual Time 7:29 AM MST 4:29 PM MST
Civil Twilight 6:56 AM MST 5:03 PM MST
Nautical Twilight 6:18 AM MST 5:40 PM MST
Astronomical Twilight 5:42 AM MST 6:16 PM MST
Moon 2:47 PM MST (1/13) 5:19 AM MST (1/13)
Length of Visible Light 10h 07m
Length of Day
8h 59m
Waxing Gibbous, 95% of the Moon is Illuminated
Jan 13
Waxing Gibbous
Jan 15
Full
Jan 23
Last Quarter
Jan 30
New
Feb 6
First Quarter

Hourly Weather History & Observations

Time (MST) Temp. Windchill Dew Point Humidity Pressure Visibility Wind Dir Wind Speed Gust Speed Precip Events Conditions
12:53 AM 21.9 °F 10.4 °F 18.0 °F 85% 29.79 in 10.0 mi West 11.5 mph - N/A   Clear
1:53 AM 19.0 °F 7.5 °F 16.0 °F 88% 29.78 in 10.0 mi WNW 10.4 mph - N/A   Clear
2:53 AM 19.0 °F - 16.0 °F 88% 29.76 in 10.0 mi Calm Calm - N/A   Clear
3:53 AM 23.0 °F 18.4 °F 19.9 °F 88% 29.73 in 10.0 mi WNW 3.5 mph - N/A   Overcast
4:53 AM 24.1 °F - 21.0 °F 88% 29.71 in 10.0 mi Calm Calm - N/A   Overcast
5:53 AM 28.0 °F 18.6 °F 21.9 °F 78% 29.68 in 10.0 mi WSW 10.4 mph - N/A   Overcast
6:53 AM 28.9 °F 18.2 °F 23.0 °F 78% 29.67 in 10.0 mi West 13.8 mph - N/A   Overcast
7:53 AM 30.9 °F 20.7 °F 27.0 °F 85% 29.64 in 10.0 mi SW 13.8 mph - 0.00 in   Overcast
8:53 AM 32.0 °F 20.8 °F 26.1 °F 79% 29.64 in 10.0 mi SW 17.3 mph - N/A   Mostly Cloudy
9:53 AM 34.0 °F 24.6 °F 27.0 °F 75% 29.65 in 10.0 mi WSW 13.8 mph - N/A   Overcast
10:53 AM 36.0 °F 26.0 °F 28.0 °F 73% 29.63 in 10.0 mi West 17.3 mph - N/A   Scattered Clouds
11:53 AM 37.0 °F 26.7 °F 28.9 °F 73% 29.61 in 10.0 mi West 19.6 mph - N/A   Scattered Clouds
12:53 PM 37.0 °F 26.2 °F 28.9 °F 73% 29.59 in 10.0 mi West 21.9 mph - N/A   Mostly Cloudy
1:53 PM 37.0 °F 26.2 °F 30.9 °F 79% 29.59 in 10.0 mi West 21.9 mph - N/A   Mostly Cloudy
2:53 PM 37.9 °F 29.2 °F 30.0 °F 73% 29.57 in 10.0 mi West 15.0 mph 23.0 mph N/A   Overcast
3:53 PM 39.9 °F 28.8 °F 28.9 °F 65% 29.55 in 10.0 mi West 27.6 mph 36.8 mph N/A   Scattered Clouds
4:53 PM 37.9 °F 27.1 °F 28.9 °F 70% 29.55 in 10.0 mi West 23.0 mph 34.5 mph N/A   Clear
5:53 PM 37.9 °F 24.9 °F 28.9 °F 70% 29.59 in 10.0 mi WNW 34.5 mph 42.6 mph N/A   Mostly Cloudy
6:53 PM 36.0 °F 21.3 °F 28.9 °F 76% 29.66 in 10.0 mi NNW 40.3 mph 49.5 mph N/A   Overcast
7:53 PM 34.0 °F 20.5 °F 30.0 °F 85% 29.73 in 9.0 mi NW 28.8 mph 39.1 mph 0.00 in   Mostly Cloudy
8:53 PM 33.1 °F 17.5 °F 24.1 °F 70% 29.82 in 10.0 mi NW 39.1 mph 48.3 mph 0.00 in   Clear
9:53 PM 28.9 °F 13.5 °F 21.0 °F 72% 29.88 in 10.0 mi NW 29.9 mph 40.3 mph N/A   Clear
10:53 PM 28.0 °F 12.3 °F 19.0 °F 69% 29.94 in 10.0 mi NW 29.9 mph 41.4 mph N/A   Clear
11:53 PM 25.0 °F 7.8 °F 17.1 °F 72% 29.98 in 10.0 mi NW 31.1 mph 41.4 mph N/A   Clear